Terug naar catalogus

STARLINK-4574

ActiefCommunicatieVLEO
NORAD 53733·PAYLOAD·🇺🇸 United States

Gelanceerd Sep 5, 2022 vanaf Cape Canaveral Space Force Station

Loading…

Volgende Passages (komende 24 uur)

TLE

VersSource: CelesTrak SupGP

Epoch: Sep 15, 2026, 01:52 UTC

1 53733C 22107AK  26258.07826389  .00027369  00000+0  83054-3 0  2586
2 53733  53.1577 109.1382 0001205  78.1776  32.4325 15.33533512    10

Volg STARLINK-4574 in realtime met AllMySat

Download on the App Store